Starlink 32363

operational
NORAD ID: 61678 Int'l Des: 2024-193 Owner: SPXS Country: US Constellation: starlink
LEOCIRCULAR

关于 Starlink 32363

正在加载描述...

实时位置

正在加载3D地球...

即将过境

高度历史

Altitude vs Time

uPlot chart will show altitude changes over time

两行轨道根数

1 61678U 24193T 25305.36303705 -.00000979 00000-0 -20940-4 0 9995
2 61678 53.1610 326.7565 0001338 98.5419 261.5733 15.30197121 56885
Epoch: Nov 1, 2025 • Age: 26 hours

当前状态

高度 475.0 km
速度 7.63 km/s
星下点 11.09°N, 66.33°W
发射日期 Oct 26, 2024
运行时间 1 years
类型 internet

技术详情

分类 Payload
质量 730.00 kg
干质量 700.00 kg
总质量 730.00 kg
长度 0.30 m
直径 4.10 m
跨度 29.00 m
形状 Box + pan
制造商 SPXS
平台类型 Starlink V2M
阶段状态 In Orbit
所有者/国家 SPXS/US

大型星座

Loading constellations...